Theta_e
330 334 339 338 337 337 336 336 336 335 334 333 332 330 329 330 329 329 328 328 329 329 330 330 331 331 334 339 344 344 344 344 344 345 346 347 347 348 348 347 348 346 348
331 333 338 337 336 336 335 334 334 333 332 330 330 328 328 328 328 327 326 327 328 329 330 330 331 332 335 339 341 343 342 343 343 343 343 345 345 345 346 346 346 345 347
329 331 333 337 335 334 333 332 332 331 330 328 327 326 327 328 327 326 325 325 326 328 329 329 332 333 335 337 340 339 338 341 341 342 340 335 339 344 344 344 345 345 346
329 329 329 334 333 332 331 331 330 329 329 327 327 326 325 327 325 324 323 324 325 327 328 329 331 332 333 335 336 336 336 336 339 336 330 331 335 341 342 342 342 344 345
328 329 329 333 333 331 330 329 328 327 326 325 325 325 324 325 325 323 321 322 323 325 327 328 329 330 332 334 333 332 332 334 336 328 323 324 328 336 338 339 339 341 342
327 329 332 334 332 330 329 327 326 324 325 323 323 322 323 326 325 322 319 319 321 322 324 326 327 327 330 329 329 329 331 331 332 322 321 325 324 332 334 334 335 337 339
326 328 328 332 330 328 327 325 323 322 323 323 321 321 321 322 322 319 317 317 319 320 321 323 326 326 327 327 327 328 328 331 323 320 319 320 321 328 329 330 331 332 334
325 326 326 329 328 327 325 324 325 323 321 320 320 320 318 316 318 316 316 316 318 318 319 319 321 324 324 324 325 325 327 329 323 318 317 317 325 326 326 325 327 329 331
325 323 323 322 324 326 326 324 324 322 321 320 318 318 316 314 315 315 316 316 317 318 317 316 316 316 318 319 320 322 324 327 317 315 316 314 323 323 324 324 324 326 327
326 324 322 320 319 318 318 323 322 321 321 320 319 318 317 315 315 316 316 316 315 315 315 314 313 313 313 314 316 318 320 320 312 312 311 313 321 320 319 321 321 323 325
326 324 322 320 319 317 316 319 322 322 321 320 320 319 318 312 309 313 316 316 315 314 313 311 310 312 313 313 314 315 317 305 310 309 309 321 319 319 317 316 319 320 322
321 324 325 322 320 319 322 316 315 316 315 314 314 311 310 311 312 314 315 317 316 315 315 315 313 313 312 306 303 310 303 306 309 308 309 320 317 317 316 315 314 318 319
322 323 324 323 322 318 317 317 316 314 314 313 312 311 309 312 310 309 306 308 306 313 308 311 309 307 306 305 307 304 304 304 306 307 313 318 315 314 313 313 313 313 315
318 320 321 323 322 318 318 316 313 311 311 311 310 311 310 310 308 308 307 305 305 305 306 307 306 307 307 308 308 307 306 304 304 305 309 317 314 311 311 311 311 311 312
320 320 321 323 322 321 316 313 312 312 310 309 310 312 310 310 309 311 311 308 307 309 308 308 308 309 308 309 308 308 308 306 304 306 304 317 315 311 310 311 311 310 310
320 320 321 319 320 320 316 314 313 314 314 312 308 310 312 310 309 310 312 312 310 310 310 312 309 308 307 308 308 308 308 308 307 305 305 307 316 313 312 312 311 311 311
318 321 319 319 319 317 317 317 316 315 316 315 315 315 317 314 311 313 311 311 313 316 314 313 313 312 311 310 310 310 308 308 307 307 305 304 308 316 316 313 312 312 310
314 316 317 321 318 317 316 315 315 315 315 317 317 314 315 315 313 313 313 312 315 313 312 313 311 310 310 310 308 310 311 310 308 307 306 305 303 305 313 315 313 312 311
307 308 309 311 314 315 315 315 314 315 312 316 315 314 313 315 315 314 313 312 313 313 314 314 312 310 307 308 309 310 310 310 310 312 309 305 304 305 303 312 316 315 313
307 308 307 311 311 312 313 314 316 313 314 318 317 316 314 316 317 315 315 312 314 311 310 309 308 310 310 309 312 311 308 308 309 309 310 310 306 305 304 304 308 309 315
306 307 306 310 310 313 312 312 311 312 310 311 311 311 312 313 315 316 315 315 312 313 312 311 311 308 307 307 307 304 306 309 307 307 307 305 306 307 305 305 304 304 306
303 304 302 302 301 301 301 300 301 301 302 302 302 304 307 305 306 303 304 306 305 308 308 310 310 308 307 308 305 302 295 299 302 305 304 305 304 306 308 306 305 305 304
299 299 300 300 300 301 302 302 302 301 301 300 301 300 302 303 303 304 303 301 300 301 303 304 306 306 302 304 305 304 299 298 302 305 305 304 305 304 305 306 306 306 304
298 300 300 300 299 303 303 301 298 297 296 297 298 299 300 302 303 302 301 299 297 299 299 299 303 302 302 300 301 308 307 301 296 293 301 305 307 306 303 304 307 306 305
297 297 297 298 299 301 300 298 298 295 296 297 297 299 298 298 299 298 297 296 297 298 297 297 297 297 297 296 296 296 300 303 303 300 296 296 302 307 307 306 305 307 306
296 296 296 297 299 300 299 298 296 294 293 293 293 294 294 295 295 295 294 293 292 293 294 295 295 295 295 295 295 296 296 296 295 298 297 299 299 302 305 307 304 303 303
Wind_Speed
7 7 11 15 17 16 16 15 16 15 14 16 14 12 11 11 12 13 12 11 11 11 11 10 9 9 8 5 11 12 13 14 15 17 16 17 17 18 17 16 13 11 11
8 7 11 13 17 15 15 14 16 14 14 13 12 10 10 10 12 11 11 10 11 11 11 10 9 11 9 6 8 12 11 9 11 16 19 19 17 18 19 17 14 11 12
9 7 9 13 15 15 14 14 14 13 12 11 10 10 8 10 11 10 10 10 10 10 12 9 9 13 11 7 12 11 10 11 13 15 17 9 11 18 18 18 16 15 14
8 8 6 13 14 15 14 14 13 12 11 10 10 9 8 8 9 9 9 9 9 10 11 9 8 12 10 10 9 10 11 14 13 15 11 10 11 18 17 17 15 17 15
9 9 9 12 13 14 13 13 12 11 10 9 9 8 7 7 8 8 8 8 9 9 10 9 8 9 11 10 11 10 11 11 9 11 9 8 7 13 15 16 15 16 16
10 9 10 12 12 12 12 12 11 9 10 6 7 6 6 8 9 7 7 7 7 8 9 9 8 7 10 8 8 6 10 10 9 5 6 12 8 13 14 15 15 15 15
10 8 7 11 11 10 10 9 9 7 7 6 5 6 6 5 7 6 5 5 6 7 8 8 6 6 5 5 6 8 9 12 11 7 6 9 7 13 14 14 15 14 14
11 9 7 12 11 10 9 9 10 7 7 5 4 4 4 4 3 4 4 4 6 6 7 7 5 4 4 5 6 7 7 10 13 8 7 6 12 12 12 12 13 12 13
8 7 6 6 7 10 8 7 7 6 5 6 3 3 2 3 3 3 4 4 5 5 5 5 4 4 5 6 6 7 8 12 9 5 9 4 12 12 11 10 11 11 12
6 7 6 6 6 6 5 8 9 8 7 6 5 4 4 4 4 5 5 4 3 3 3 3 3 3 4 6 7 6 9 14 7 6 4 4 11 11 9 8 9 10 11
5 6 6 6 6 6 6 6 9 10 10 9 8 8 7 4 4 5 6 6 5 2 2 3 3 5 5 7 8 6 7 4 6 3 3 11 10 10 8 7 7 8 8
7 8 7 7 6 7 7 7 6 6 5 5 5 6 5 5 5 7 8 9 7 6 5 6 6 6 5 4 3 6 3 3 4 4 3 11 10 8 7 6 5 5 6
8 6 7 6 6 5 2 3 2 1 2 3 6 7 5 3 3 4 3 2 2 8 3 5 5 3 4 4 4 3 1 3 3 3 5 10 9 6 4 4 3 3 3
5 6 5 5 3 0 3 2 2 2 2 3 5 7 4 1 3 3 4 5 5 4 5 5 3 5 6 5 3 1 2 3 3 2 4 7 8 6 5 3 1 1 2
6 6 5 4 1 3 4 3 3 3 2 3 2 5 4 3 3 3 4 4 5 5 5 5 5 5 5 3 3 3 3 3 6 4 3 9 8 8 6 5 3 2 1
7 7 6 4 4 3 1 4 4 4 4 3 4 5 7 5 5 4 4 4 4 5 4 5 6 5 5 5 5 6 6 4 4 5 4 5 9 9 9 8 6 5 4
3 4 7 6 6 5 6 5 3 4 3 3 4 7 6 8 7 6 5 4 5 4 5 3 3 3 4 4 6 7 6 7 5 6 6 5 6 11 10 10 9 8 6
8 8 8 7 7 7 6 5 4 5 4 5 4 4 8 7 8 7 6 6 6 4 4 3 4 4 4 4 4 5 5 5 7 7 6 5 5 5 8 11 10 9 9
7 7 7 7 9 9 7 6 6 7 5 6 6 7 8 9 10 9 7 6 6 5 4 4 4 4 3 3 4 4 4 4 6 5 7 6 7 6 5 12 13 11 11
6 6 6 6 8 8 4 3 3 3 5 6 7 6 7 3 6 4 3 3 4 2 5 3 3 2 4 4 5 4 4 3 4 4 5 6 6 7 6 7 6 7 14
4 5 2 5 5 2 2 3 3 3 3 2 3 5 6 9 5 3 5 6 6 5 7 5 3 3 2 3 1 3 4 6 6 4 4 4 5 7 7 7 5 5 6
5 6 8 7 7 4 2 1 1 2 2 2 3 6 8 7 7 6 4 3 3 4 3 3 2 3 4 5 4 3 4 4 4 6 5 5 7 5 6 7 8 8 7
8 8 8 8 8 8 9 6 6 6 6 6 8 4 5 6 6 6 7 6 7 5 3 3 2 6 4 3 6 4 2 4 2 3 8 7 9 5 6 6 9 9 7
7 8 9 8 9 8 9 7 8 4 4 4 4 4 5 9 9 9 9 7 6 5 8 6 6 4 2 3 3 6 10 5 5 3 3 4 6 7 6 5 6 8 8
7 7 7 8 9 10 10 8 6 6 3 3 4 7 8 7 8 8 7 6 6 6 5 5 7 7 3 2 2 2 3 6 9 8 8 4 2 4 6 7 6 6 9
7 8 8 9 8 7 9 8 7 7 6 5 5 6 7 8 7 9 10 3 2 3 4 3 3 4 5 4 3 3 2 3 3 4 7 7 8 5 3 6 7 6 5
Wind_Direction
89 98 94 96 86 84 83 82 79 79 78 74 76 77 77 78 72 69 65 62 66 64 59 48 50 60 67 64 77 84 80 80 73 65 63 65 67 60 59 63 62 69 75
111 99 99 100 96 89 81 78 75 76 78 83 81 78 73 81 80 65 66 67 68 68 64 47 57 74 91 62 72 74 71 94 86 79 65 55 61 63 56 58 64 66 68
114 106 100 96 96 92 86 81 79 79 79 80 80 76 69 74 75 65 59 58 67 74 66 57 69 86 100 78 71 57 41 54 82 86 76 64 54 61 60 52 53 63 64
121 103 92 98 96 94 87 83 82 77 76 76 74 72 73 71 74 64 57 54 57 69 70 66 78 93 96 91 61 43 41 20 47 71 69 56 55 50 56 55 53 55 59
102 109 104 101 100 100 98 90 81 73 69 67 72 68 76 68 79 64 54 51 56 63 68 67 79 80 70 80 56 15 22 28 36 79 82 70 60 54 55 54 51 50 49
106 110 112 110 104 100 99 96 91 82 71 77 74 73 67 79 67 65 57 49 55 62 67 68 83 82 64 58 47 13 17 18 69 75 76 77 68 63 57 55 54 51 55
122 126 118 116 109 104 96 96 97 90 76 73 75 76 66 46 72 69 66 62 60 61 67 71 74 77 58 63 54 29 10 359 127 91 86 77 71 65 56 53 52 52 54
138 135 133 126 123 120 119 119 108 110 125 104 102 93 84 74 76 83 82 75 66 71 72 73 67 56 29 34 44 31 12 29 102 99 89 86 87 75 64 56 52 49 52
129 126 129 122 139 131 128 138 134 120 132 132 130 142 140 163 156 128 96 94 67 68 69 70 52 32 13 3 17 13 7 48 114 116 98 89 94 84 73 65 57 52 50
131 134 144 149 149 145 147 164 159 167 173 177 177 190 207 231 209 162 137 116 88 72 55 32 8 355 351 339 341 358 1 72 100 109 105 105 98 89 81 72 67 59 55
138 151 156 173 179 167 174 196 193 181 187 192 193 208 213 217 236 225 190 166 157 171 211 260 286 303 315 324 320 335 7 39 129 115 116 113 102 90 81 77 71 68 59
157 179 180 181 187 170 190 194 202 200 196 199 206 210 207 224 214 196 187 191 192 201 225 250 250 255 288 303 313 341 336 61 132 129 156 122 112 104 94 79 75 71 67
166 153 153 172 192 176 209 157 230 244 233 225 212 212 213 245 212 181 183 201 212 223 222 244 264 260 238 261 279 253 346 20 163 161 159 133 130 128 115 94 73 68 90
132 157 155 173 155 161 55 40 110 151 197 206 213 196 197 176 257 206 203 200 199 226 234 232 223 239 239 185 156 39 303 71 125 155 165 154 146 154 158 155 138 87 33
153 150 136 126 149 82 38 357 334 307 305 263 212 210 192 200 242 268 237 194 205 209 209 238 216 209 205 191 218 220 254 263 147 170 178 177 171 177 191 199 208 206 205
156 168 171 137 136 105 334 277 279 274 277 307 272 208 216 202 220 241 261 280 229 195 208 215 214 191 210 192 213 218 223 218 241 161 174 188 195 198 196 206 215 224 233
183 163 143 157 153 175 218 232 258 272 233 261 238 255 217 212 215 224 218 230 238 255 260 245 230 239 207 207 204 208 210 224 215 189 180 190 199 206 208 207 211 218 229
124 136 167 172 169 207 220 216 230 246 250 245 253 254 245 210 212 215 214 227 233 223 211 210 219 240 239 226 229 215 206 214 218 216 193 183 194 198 213 217 221 222 225
136 151 174 165 182 201 219 216 224 237 254 251 235 240 235 238 215 210 217 217 235 227 233 211 231 194 216 233 240 237 245 234 212 208 200 213 193 189 196 212 214 220 229
163 191 174 192 208 207 217 264 305 298 272 265 267 283 302 320 304 306 211 278 277 300 283 254 250 243 235 215 245 257 258 256 249 234 211 195 223 199 189 193 197 210 220
192 196 228 40 61 142 218 248 256 236 276 290 316 319 344 4 351 306 302 288 250 231 221 243 158 234 294 234 233 284 275 256 265 261 260 231 205 226 207 187 184 195 216
41 79 63 56 39 28 29 319 291 302 309 302 6 15 41 29 16 17 13 345 335 311 295 281 251 258 222 245 204 203 262 291 242 237 235 244 243 213 215 207 192 194 205
64 62 57 43 32 36 27 17 5 3 5 13 1 4 17 25 15 7 22 16 348 329 289 250 199 216 228 232 224 209 302 223 191 235 233 234 240 221 216 205 210 200 190
64 56 51 39 42 48 39 39 41 28 359 339 329 341 345 16 24 23 34 24 15 2 5 345 344 317 275 220 253 221 222 204 197 255 278 221 213 231 227 215 203 212 192
83 76 58 47 46 43 59 58 49 31 338 318 344 358 359 353 16 15 21 21 19 5 349 0 357 355 331 310 268 301 238 217 226 239 253 274 294 241 228 222 203 199 201
63 53 52 44 59 54 52 40 39 19 350 348 353 4 358 349 344 347 342 343 347 328 320 317 319 327 323 321 299 297 263 243 206 216 221 239 253 248 235 248 211 200 194